• In Österreich
  • Länderverzeichnis
  • Für 7 Tage
  • Wassertemperatur
  • Satellitenkarten
  • Wetterkarte
  • News
  • Widgets
  • user-avatar
    Anmelden

    Stündliche Wetter Mauritius

    Heute, 22 Februar, Donnerstag

    Zeit Temperatur Niederschläge Wind Luftdruck Luftfeuchtigkeit
    00:00 +26°C° 0,2 mm 1 m/S 721 mmHg 81%
    01:00 +26°C° 0,2 mm 1 m/S 720 mmHg 81%
    02:00 +26°C° 0 mm 1 m/S 720 mmHg 81%
    03:00 +26°C° 0 mm 2 m/S 720 mmHg 82%
    04:00 +26°C° 0 mm 2 m/S 720 mmHg 82%
    05:00 +26°C° 0,1 mm 2 m/S 720 mmHg 82%
    06:00 +26°C° 0,1 mm 3 m/S 720 mmHg 82%
    07:00 +26°C° 0,1 mm 3 m/S 720 mmHg 82%
    08:00 +27°C° 0,1 mm 3 m/S 720 mmHg 79%
    09:00 +28°C° 0,1 mm 3 m/S 720 mmHg 76%
    10:00 +28°C° 0,1 mm 3 m/S 720 mmHg 73%
    11:00 +29°C° 0,5 mm 3 m/S 720 mmHg 72%
    12:00 +29°C° 0,5 mm 3 m/S 720 mmHg 71%
    13:00 +29°C° 0,5 mm 3 m/S 720 mmHg 70%
    14:00 +29°C° 1 mm 3 m/S 720 mmHg 72%
    15:00 +28°C° 1 mm 3 m/S 720 mmHg 73%
    16:00 +28°C° 1 mm 2 m/S 720 mmHg 74%
    17:00 +28°C° 1,7 mm 2 m/S 720 mmHg 76%
    18:00 +27°C° 1,7 mm 2 m/S 720 mmHg 78%
    19:00 +27°C° 1,7 mm 2 m/S 720 mmHg 81%
    20:00 +26°C° 0,4 mm 2 m/S 720 mmHg 81%
    21:00 +26°C° 0,4 mm 2 m/S 720 mmHg 82%
    22:00 +26°C° 0,4 mm 2 m/S 721 mmHg 83%
    23:00 +26°C° 0,4 mm 2 m/S 720 mmHg 83%

    Morgen, 23 Februar, Freitag

    Zeit Temperatur Niederschläge Wind Luftdruck Luftfeuchtigkeit
    00:00 +26°C° 0,4 mm 2 m/S 720 mmHg 84%
    01:00 +26°C° 0,4 mm 3 m/S 720 mmHg 85%
    02:00 +26°C° 0,7 mm 3 m/S 720 mmHg 85%
    03:00 +26°C° 0,7 mm 3 m/S 720 mmHg 85%
    04:00 +26°C° 0,7 mm 3 m/S 719 mmHg 85%
    05:00 +26°C° 1,2 mm 3 m/S 719 mmHg 84%
    06:00 +26°C° 1,2 mm 4 m/S 720 mmHg 83%
    07:00 +26°C° 1,2 mm 4 m/S 720 mmHg 83%
    08:00 +27°C° 0,6 mm 4 m/S 720 mmHg 80%
    09:00 +28°C° 0,6 mm 5 m/S 720 mmHg 78%
    10:00 +28°C° 0,6 mm 5 m/S 721 mmHg 75%
    11:00 +28°C° 1,6 mm 5 m/S 720 mmHg 75%
    12:00 +28°C° 1,6 mm 5 m/S 720 mmHg 75%
    13:00 +28°C° 1,6 mm 5 m/S 720 mmHg 74%
    14:00 +28°C° 2,6 mm 4 m/S 720 mmHg 76%
    15:00 +27°C° 2,6 mm 4 m/S 719 mmHg 77%
    16:00 +27°C° 2,6 mm 3 m/S 719 mmHg 79%
    17:00 +26°C° 2,2 mm 3 m/S 719 mmHg 79%
    18:00 +26°C° 2,2 mm 3 m/S 720 mmHg 80%
    19:00 +26°C° 2,2 mm 2 m/S 720 mmHg 80%
    20:00 +26°C° 0,4 mm 3 m/S 720 mmHg 81%
    21:00 +26°C° 0,4 mm 3 m/S 721 mmHg 81%
    22:00 +26°C° 0,4 mm 3 m/S 721 mmHg 82%
    23:00 +26°C° 0,1 mm 3 m/S 721 mmHg 81%

    übermorgen, 24 Februar, Samstag

    Zeit Temperatur Niederschläge Wind Luftdruck Luftfeuchtigkeit
    00:00 +26°C° 0,1 mm 3 m/S 721 mmHg 80%
    01:00 +26°C° 0,1 mm 3 m/S 721 mmHg 79%
    02:00 +26°C° 0,1 mm 3 m/S 720 mmHg 78%
    03:00 +26°C° 0,1 mm 3 m/S 720 mmHg 77%
    04:00 +26°C° 0,1 mm 3 m/S 720 mmHg 76%
    05:00 +26°C° 0 mm 4 m/S 720 mmHg 76%
    06:00 +26°C° 0 mm 4 m/S 721 mmHg 75%
    07:00 +26°C° 0 mm 4 m/S 721 mmHg 75%
    08:00 +27°C° 0 mm 4 m/S 721 mmHg 73%
    09:00 +28°C° 0 mm 4 m/S 721 mmHg 71%
    10:00 +29°C° 0 mm 4 m/S 722 mmHg 69%
    11:00 +29°C° 0 mm 4 m/S 721 mmHg 67%
    12:00 +30°C° 0 mm 4 m/S 721 mmHg 65%
    13:00 +30°C° 0 mm 4 m/S 721 mmHg 63%
    14:00 +30°C° 0,4 mm 4 m/S 721 mmHg 65%
    15:00 +30°C° 0,4 mm 4 m/S 720 mmHg 66%
    16:00 +29°C° 0,4 mm 3 m/S 720 mmHg 68%
    17:00 +28°C° 1,1 mm 3 m/S 720 mmHg 71%
    18:00 +28°C° 1,1 mm 3 m/S 721 mmHg 75%
    19:00 +27°C° 1,1 mm 3 m/S 721 mmHg 78%
    20:00 +27°C° 0,9 mm 3 m/S 721 mmHg 78%
    21:00 +27°C° 0,9 mm 3 m/S 722 mmHg 78%
    22:00 +27°C° 0,9 mm 3 m/S 722 mmHg 78%
    23:00 +27°C° 0,1 mm 3 m/S 722 mmHg 79%

    25 Februar, Sonntag

    Zeit Temperatur Niederschläge Wind Luftdruck Luftfeuchtigkeit
    00:00 +26°C° 0,1 mm 3 m/S 721 mmHg 79%
    01:00 +26°C° 0,1 mm 3 m/S 721 mmHg 80%
    02:00 +26°C° 0,6 mm 3 m/S 721 mmHg 80%
    03:00 +26°C° 0,6 mm 3 m/S 720 mmHg 80%
    04:00 +26°C° 0,6 mm 3 m/S 720 mmHg 80%
    05:00 +26°C° 0,1 mm 3 m/S 721 mmHg 79%
    06:00 +26°C° 0,1 mm 3 m/S 721 mmHg 78%
    07:00 +26°C° 0,1 mm 3 m/S 721 mmHg 78%
    08:00 +27°C° 0,1 mm 3 m/S 722 mmHg 74%
    09:00 +28°C° 0,1 mm 3 m/S 722 mmHg 71%
    10:00 +29°C° 0,1 mm 3 m/S 722 mmHg 68%
    11:00 +29°C° 0,7 mm 3 m/S 722 mmHg 67%
    12:00 +29°C° 0,7 mm 3 m/S 722 mmHg 66%
    13:00 +30°C° 0,7 mm 2 m/S 721 mmHg 65%
    14:00 +29°C° 0,6 mm 2 m/S 721 mmHg 67%
    15:00 +29°C° 0,6 mm 2 m/S 721 mmHg 68%
    16:00 +29°C° 0,6 mm 2 m/S 721 mmHg 70%
    17:00 +28°C° 0,3 mm 2 m/S 721 mmHg 72%
    18:00 +28°C° 0,3 mm 2 m/S 721 mmHg 75%
    19:00 +28°C° 0,3 mm 2 m/S 722 mmHg 77%
    20:00 +27°C° 0,1 mm 2 m/S 722 mmHg 78%
    21:00 +27°C° 0,1 mm 3 m/S 722 mmHg 80%
    22:00 +27°C° 0,1 mm 3 m/S 723 mmHg 81%
    23:00 +27°C° 0,4 mm 3 m/S 722 mmHg 80%

    26 Februar, Montag

    Zeit Temperatur Niederschläge Wind Luftdruck Luftfeuchtigkeit
    00:00 +26°C° 0,4 mm 2 m/S 722 mmHg 80%
    01:00 +26°C° 0,4 mm 2 m/S 721 mmHg 79%
    02:00 +26°C° 0 mm 2 m/S 721 mmHg 79%
    03:00 +26°C° 0 mm 2 m/S 721 mmHg 79%
    04:00 +26°C° 0 mm 2 m/S 721 mmHg 79%
    05:00 +26°C° 0 mm 2 m/S 721 mmHg 79%
    06:00 +26°C° 0 mm 2 m/S 721 mmHg 79%
    07:00 +26°C° 0 mm 2 m/S 722 mmHg 78%
    08:00 +27°C° 0 mm 2 m/S 722 mmHg 75%
    09:00 +28°C° 0 mm 2 m/S 722 mmHg 71%
    10:00 +29°C° 0 mm 2 m/S 722 mmHg 67%
    11:00 +29°C° 0 mm 2 m/S 722 mmHg 67%
    12:00 +29°C° 0 mm 2 m/S 721 mmHg 67%
    13:00 +30°C° 0 mm 2 m/S 721 mmHg 66%
    14:00 +29°C° 0,1 mm 2 m/S 721 mmHg 69%
    15:00 +29°C° 0,1 mm 2 m/S 720 mmHg 72%
    16:00 +28°C° 0,1 mm 2 m/S 720 mmHg 74%
    17:00 +28°C° 0,1 mm 2 m/S 721 mmHg 76%
    18:00 +28°C° 0,1 mm 2 m/S 721 mmHg 78%
    19:00 +27°C° 0,1 mm 2 m/S 721 mmHg 80%
    20:00 +27°C° 0 mm 3 m/S 721 mmHg 80%
    21:00 +27°C° 0 mm 3 m/S 722 mmHg 80%
    22:00 +27°C° 0 mm 3 m/S 722 mmHg 80%
    23:00 +27°C° 0,2 mm 2 m/S 721 mmHg 80%

    27 Februar, Dienstag

    Zeit Temperatur Niederschläge Wind Luftdruck Luftfeuchtigkeit
    00:00 +26°C° 0,2 mm 2 m/S 721 mmHg 81%
    01:00 +26°C° 0,2 mm 2 m/S 721 mmHg 81%
    02:00 +26°C° 0,1 mm 1 m/S 721 mmHg 82%
    03:00 +26°C° 0,1 mm 1 m/S 720 mmHg 83%
    04:00 +26°C° 0,1 mm 1 m/S 720 mmHg 83%
    05:00 +26°C° 0,6 mm 1 m/S 721 mmHg 83%
    06:00 +26°C° 0,6 mm 1 m/S 721 mmHg 83%
    07:00 +26°C° 0,6 mm 1 m/S 721 mmHg 83%
    08:00 +27°C° 0,1 mm 1 m/S 721 mmHg 78%
    09:00 +28°C° 0,1 mm 1 m/S 721 mmHg 73%
    10:00 +29°C° 0,1 mm 1 m/S 721 mmHg 69%
    11:00 +29°C° 0 mm 1 m/S 721 mmHg 67%
    12:00 +29°C° 0 mm 1 m/S 721 mmHg 66%
    13:00 +30°C° 0 mm 2 m/S 720 mmHg 64%
    14:00 +29°C° 0,8 mm 2 m/S 720 mmHg 68%
    15:00 +28°C° 0,8 mm 1 m/S 720 mmHg 72%
    16:00 +27°C° 0,8 mm 1 m/S 720 mmHg 76%
    17:00 +27°C° 1 mm 2 m/S 720 mmHg 77%
    18:00 +27°C° 1 mm 2 m/S 720 mmHg 78%
    19:00 +26°C° 1 mm 2 m/S 720 mmHg 79%
    20:00 +26°C° 0 mm 2 m/S 721 mmHg 79%
    21:00 +26°C° 0 mm 2 m/S 721 mmHg 79%
    22:00 +26°C° 0 mm 2 m/S 721 mmHg 79%
    23:00 +26°C° 0 mm 2 m/S 721 mmHg 79%
    Mehr zeigen